OE6CUD-6 Weather Reports


time (UTC)temp
C
wind
direction
speed
KPH
gust
KPH
rain 1hr
cm
rain 24hr
cm
rain mn
cm
humidity
%
barometer
mb
20260506180204 17 199 6.4 22.5 0.00 0.00 0.00 80 1006.6
20260506175704 17 207 4.8 14.5 0.00 0.00 0.00 80 1006.7
20260506175442 17 227 6.4 16.1 0.00 0.00 0.00 80 1006.7
20260506174705 17 208 9.7 20.9 0.00 0.00 0.00 80 1006.6
20260506174156 17 211 9.7 20.9 0.00 0.00 0.00 80 1006.7
20260506173656 17 252 6.4 16.1 0.00 0.00 0.00 80 1006.7
20260506173155 17 200 6.4 16.1 0.00 0.00 0.00 80 1006.6
20260506172655 17 176 4.8 16.1 0.00 0.00 0.00 80 1006.5
20260506172152 17 225 6.4 17.7 0.00 0.00 0.00 80 1006.6
20260506171647 17 211 8.0 17.7 0.00 0.00 0.00 79 1006.6
20260506171142 17 201 8.0 20.9 0.00 0.00 0.00 79 1006.6
20260506170639 17 181 9.7 27.4 0.00 0.00 0.00 79 1006.6
20260506170138 17 201 9.7 27.4 0.00 0.00 0.00 78 1006.5
20260506165640 17 217 9.7 24.1 0.00 0.00 0.00 78 1006.7
20260506165136 17 196 9.7 24.1 0.00 0.00 0.00 78 1006.6
20260506164639 18 229 11.3 32.2 0.00 0.00 0.00 77 1006.7
20260506164131 18 215 11.3 32.2 0.00 0.00 0.00 77 1006.7
20260506163906 18 191 9.7 32.2 0.00 0.00 0.00 77 1006.7
20260506163129 18 215 11.3 32.2 0.00 0.00 0.00 77 1006.8
20260506162630 18 215 14.5 32.2 0.00 0.00 0.00 77 1006.9
20260506162129 18 168 12.9 33.8 0.00 0.00 0.00 76 1006.9
20260506161629 18 175 11.3 33.8 0.00 0.00 0.00 76 1007.0
20260506161130 18 198 11.3 32.2 0.00 0.00 0.00 75 1007.1
20260506160630 18 186 12.9 32.2 0.00 0.00 0.00 75 1007.1
20260506160409 18 195 9.7 25.7 0.00 0.00 0.00 74 1007.2
20260506155619 18 199 8.0 22.5 0.00 0.00 0.00 74 1007.2
20260506155119 19 205 11.3 22.5 0.00 0.00 0.00 74 1007.1
20260506154639 19 217 11.3 25.7 0.00 0.00 0.00 72 1007.2
20260506154630 19 207 11.3 25.7 0.00 0.00 0.00 73 1007.1
20260506153608 19 207 12.9 25.7 0.00 0.00 0.00 73 1007.3
20260506153344 19 202 12.9 25.7 0.00 0.00 0.00 73 1007.4
20260506152609 19 209 14.5 33.8 0.00 0.00 0.00 73 1007.3
20260506152104 19 167 16.1 33.8 0.00 0.00 0.00 73 1007.2
20260506151604 19 200 14.5 33.8 0.00 0.00 0.00 73 1007.3
20260506151343 19 224 11.3 32.2 0.00 0.00 0.00 71 1007.3
20260506150603 19 141 11.3 32.2 0.00 0.00 0.00 72 1007.3
20260506145603 20 207 11.3 32.2 0.00 0.00 0.00 71 1007.3
20260506145105 20 165 11.3 24.1 0.00 0.00 0.00 71 1007.3
20260506144603 20 144 11.3 25.7 0.00 0.00 0.00 71 1007.3
20260506144103 20 263 11.3 30.6 0.00 0.00 0.00 70 1007.3
20260506143603 20 219 12.9 30.6 0.00 0.00 0.00 69 1007.2
20260506143102 20 188 12.9 32.2 0.00 0.00 0.00 69 1007.4
20260506142602 21 169 14.5 32.2 0.00 0.00 0.00 67 1007.5
20260506142101 21 220 11.3 33.8 0.00 0.00 0.00 67 1007.6
20260506141603 21 119 11.3 33.8 0.00 0.00 0.00 65 1007.6
20260506141101 22 164 12.9 37.0 0.00 0.00 0.00 64 1007.6
20260506140602 22 215 14.5 37.0 0.00 0.00 0.00 62 1007.6
20260506140343 22 144 11.3 32.2 0.00 0.00 0.00 65 1007.7
20260506135847 22 213 11.3 30.6 0.00 0.00 0.00 64 1007.6
20260506135100 22 174 12.9 30.6 0.00 0.00 0.00 63 1007.6
20260506134846 22 173 11.3 33.8 0.00 0.00 0.00 62 1007.6
20260506134101 22 93 11.3 33.8 0.00 0.00 0.00 62 1007.7
20260506133602 22 185 11.3 27.4 0.00 0.00 0.00 64 1007.6
20260506133101 21 198 12.9 29.0 0.00 0.00 0.00 65 1007.5
20260506132604 21 235 12.9 29.0 0.00 0.00 0.00 65 1007.5
20260506132058 21 178 12.9 33.8 0.00 0.00 0.00 64 1007.7
20260506131559 21 130 12.9 33.8 0.00 0.00 0.00 63 1007.8
20260506131056 21 213 11.3 30.6 0.00 0.00 0.00 63 1007.7
20260506130843 21 216 11.3 30.6 0.00 0.00 0.00 62 1007.8
20260506130056 22 192 11.3 30.6 0.00 0.00 0.00 61 1007.9
20260506125552 23 156 12.9 33.8 0.00 0.00 0.00 58 1008.1
20260506125050 23 269 14.5 33.8 0.00 0.00 0.00 59 1008.1
20260506124546 23 163 11.3 29.0 0.00 0.00 0.00 58 1007.9
20260506124338 23 233 11.3 32.2 0.00 0.00 0.00 58 1007.9
20260506123544 23 135 11.3 32.2 0.00 0.00 0.00 58 1007.8
20260506123034 24 173 11.3 29.0 0.00 0.00 0.00 56 1008.3
20260506122817 23 232 11.3 32.2 0.00 0.00 0.00 58 1008.3
20260506122030 24 195 9.7 32.2 0.00 0.00 0.00 57 1008.3
20260506121533 24 208 8.0 27.4 0.00 0.00 0.00 56 1008.3
20260506121031 23 210 8.0 24.1 0.00 0.00 0.00 59 1008.3
20260506120530 23 247 9.7 24.1 0.00 0.00 0.00 60 1008.2
20260506120031 23 284 11.3 29.0 0.00 0.00 0.00 58 1008.2
20260506115538 23 161 9.7 29.0 0.00 0.00 0.00 58 1008.3
20260506115028 23 114 9.7 22.5 0.00 0.00 0.00 58 1008.2
20260506114517 23 157 8.0 24.1 0.00 0.00 0.00 56 1008.4
20260506114016 23 167 9.7 24.1 0.00 0.00 0.00 57 1008.4
20260506113514 23 191 9.7 27.4 0.00 0.00 0.00 58 1008.5
20260506113011 23 203 6.4 27.4 0.00 0.00 0.00 57 1008.5
20260506112511 23 182 6.4 20.9 0.00 0.00 0.00 59 1008.7
20260506112009 23 123 6.4 20.9 0.00 0.00 0.00 60 1008.6
20260506111511 22 203 4.8 20.9 0.00 0.00 0.00 61 1008.6
20260506111011 22 198 4.8 14.5 0.00 0.00 0.00 62 1008.6
20260506110747 22 163 6.4 20.9 0.00 0.00 0.00 61 1008.7
20260506110007 22 169 8.0 20.9 0.00 0.00 0.00 60 1008.9
20260506105745 23 234 6.4 20.9 0.00 0.00 0.00 60 1009.0
20260506105005 22 196 6.4 24.1 0.00 0.00 0.00 63 1008.9
20260506104502 21 123 6.4 24.1 0.00 0.00 0.00 64 1008.8
20260506104236 21 174 6.4 20.9 0.00 0.00 0.00 64 1008.8
20260506103505 21 211 6.4 20.9 0.00 0.00 0.00 65 1008.7
20260506103003 21 265 8.0 22.5 0.00 0.00 0.00 65 1008.8
20260506102746 20 202 9.7 33.8 0.00 0.00 0.00 65 1008.8
20260506102001 20 202 9.7 33.8 0.00 0.00 0.00 65 1008.8
20260506101503 20 240 9.7 27.4 0.00 0.00 0.00 64 1008.8
20260506101002 20 229 9.7 27.4 0.00 0.00 0.00 63 1008.9
20260506100501 20 227 11.3 27.4 0.00 0.00 0.00 63 1008.8
20260506095953 21 193 11.3 30.6 0.00 0.00 0.00 61 1008.9
20260506095453 21 134 11.3 30.6 0.00 0.00 0.00 60 1008.9
20260506094949 22 181 9.7 24.1 0.00 0.00 0.00 59 1009.0
20260506094449 22 238 8.0 24.1 0.00 0.00 0.00 57 1008.9
20260506093941 23 221 6.4 24.1 0.00 0.00 0.00 53 1009.0
20260506093715 24 146 6.4 19.3 0.00 0.00 0.00 54 1009.2
20260506093217 23 165 8.0 27.4 0.00 0.00 0.00 55 1008.9
20260506092434 23 219 8.0 27.4 0.00 0.00 0.00 54 1008.9
20260506091934 23 234 8.0 19.3 0.00 0.00 0.00 54 1008.7
20260506091433 23 237 6.4 22.5 0.00 0.00 0.00 53 1008.9
20260506090931 23 169 6.4 22.5 0.00 0.00 0.00 54 1008.9
20260506090431 24 189 6.4 19.3 0.00 0.00 0.00 53 1009.0
20260506085922 23 205 6.4 19.3 0.00 0.00 0.00 55 1008.9
20260506085409 23 281 4.8 19.3 0.00 0.00 0.00 54 1009.0
20260506084902 22 191 3.2 12.9 0.00 0.00 0.00 54 1008.9
20260506084400 23 202 3.2 11.3 0.00 0.00 0.00 59 1009.0
20260506084140 22 161 4.8 12.9 0.00 0.00 0.00 59 1009.0
20260506083402 22 229 4.8 17.7 0.00 0.00 0.00 59 1009.1
20260506082902 22 120 4.8 17.7 0.00 0.00 0.00 61 1009.0
20260506082403 21 144 4.8 12.9 0.00 0.00 0.00 62 1008.9
20260506082218 21 213 4.8 12.9 0.00 0.00 0.00 63 1009.0
20260506081402 21 144 1.6 12.9 0.00 0.00 0.00 62 1008.9
20260506080902 21 128 1.6 9.7 0.00 0.00 0.00 64 1008.8
20260506080403 21 126 4.8 11.3 0.00 0.00 0.00 64 1008.9
20260506072902 18 198 3.2 9.7 0.00 0.00 0.00 72 1008.9
20260506072403 18 163 3.2 11.3 0.00 0.00 0.00 70 1008.8
20260506071856 18 196 3.2 12.9 0.00 0.00 0.00 69 1008.8
20260506071347 19 115 1.6 6.4 0.00 0.00 0.00 70 1008.8
20260506070844 18 109 1.6 6.4 0.00 0.00 0.00 70 1008.7
20260506070341 18 143 1.6 6.4 0.00 0.00 0.00 72 1008.8
20260506062256 15 196 0.0 3.2 0.00 0.00 0.00 75 1008.6
20260506061756 16 268 1.6 4.8 0.00 0.00 0.00 75 1008.7
20260506061538 16 348 3.2 6.4 0.00 0.00 0.00 77 1008.7
20260506060742 15 68 1.6 6.4 0.00 0.00 0.00 79 1008.5
20260506060241 15 86 1.6 6.4 0.00 0.00 0.00 79 1008.5
20260506051300 9 309 1.6 4.8 0.00 0.00 0.00 100 1007.8
20260506051252 10 49 1.6 3.2 0.00 0.00 0.00 100 1007.8
20260506050231 9 21 1.6 4.8 0.00 0.00 0.00 100 1007.6
20260506045017 8 52 0.0 3.2 0.00 0.00 0.00 99 1007.7
20260506044223 8 344 1.6 3.2 0.00 0.00 0.00 98 1007.6
20260506043710 8 333 1.6 3.2 0.00 0.00 0.00 98 1007.5
20260506043209 8 313 1.6 3.2 0.00 0.00 0.00 98 1007.6
20260506042703 8 348 0.0 3.2 0.00 0.00 0.00 98 1007.5
20260506042203 8 327 1.6 3.2 0.00 0.00 0.00 98 1007.5
20260506041702 8 326 1.6 3.2 0.00 0.00 0.00 97 1007.5
20260506041200 8 321 0.0 3.2 0.00 0.00 0.00 97 1007.5
20260506040702 8 303 0.0 3.2 0.00 0.00 0.00 97 1007.5
20260506040201 9 303 1.6 4.8 0.00 0.00 0.00 97 1007.5
20260506035702 9 303 1.6 4.8 0.00 0.00 0.00 97 1007.4
20260506035201 9 292 1.6 3.2 0.00 0.00 0.00 97 1007.4
20260506034709 9 279 0.0 3.2 0.00 0.00 0.00 97 1007.3
20260506034205 9 279 0.0 3.2 0.00 0.00 0.00 97 1007.3
20260506033652 9 279 0.0 3.2 0.00 0.00 0.00 97 1007.2
20260506033134 9 279 0.0 3.2 0.00 0.00 0.00 97 1007.3
20260506032630 9 279 1.6 3.2 0.00 0.00 0.00 97 1007.2
20260506032131 9 279 1.6 3.2 0.00 0.00 0.00 97 1007.3
20260506031629 9 279 0.0 3.2 0.00 0.00 0.00 97 1007.2
20260506031411 10 285 1.6 3.2 0.00 0.00 0.00 96 1007.2
20260506030702 10 12 1.6 3.2 0.00 0.00 0.00 96 1007.3
20260506030654 10 326 1.6 3.2 0.00 0.00 0.00 96 1007.2
20260506025629 10 286 1.6 4.8 0.00 0.00 0.00 96 1007.3
20260506025131 10 326 1.6 4.8 0.00 0.00 0.00 96 1007.3
20260506024621 10 336 0.0 3.2 0.00 0.00 0.00 96 1007.3
20260506024121 10 344 1.6 3.2 0.00 0.00 0.00 96 1007.3
20260506023615 10 355 1.6 3.2 0.00 0.00 0.00 96 1007.3
20260506023116 10 73 1.6 4.8 0.00 0.00 0.00 96 1007.1
20260506022617 10 292 1.6 6.4 0.00 0.00 0.00 96 1007.3
20260506022115 10 289 1.6 6.4 0.00 0.00 0.00 96 1007.1
20260506021852 10 72 1.6 4.8 0.00 0.00 0.00 96 1007.0
20260506021112 10 34 0.0 3.2 0.00 0.00 0.00 96 1007.0
20260506020610 10 252 1.6 4.8 0.00 0.00 0.00 96 1007.0
20260506015602 10 282 1.6 6.4 0.00 0.00 0.00 95 1007.1
20260506015102 10 337 1.6 4.8 0.00 0.00 0.00 95 1007.1
20260506014603 10 302 1.6 3.2 0.00 0.00 0.00 95 1007.1
20260506014102 10 265 1.6 3.2 0.00 0.00 0.00 94 1007.0
20260506013602 11 294 0.0 3.2 0.00 0.00 0.00 94 1007.0
20260506013101 11 316 0.0 3.2 0.00 0.00 0.00 94 1006.9
20260506012905 11 216 0.0 3.2 0.00 0.00 0.00 94 1006.8
20260506012102 11 216 1.6 4.8 0.00 0.00 0.00 94 1006.8
20260506011603 11 5 1.6 4.8 0.00 0.00 0.00 94 1006.8
20260506011101 11 271 1.6 4.8 0.00 0.00 0.00 94 1006.8
20260506010603 11 286 1.6 4.8 0.00 0.00 0.00 94 1006.8
20260506010346 11 326 1.6 4.8 0.00 0.00 0.00 94 1006.8
20260506005558 11 306 1.6 4.8 0.00 0.00 0.00 94 1006.8
20260506005323 11 27 3.2 6.4 0.00 0.00 0.00 94 1006.7
20260506004546 11 74 3.2 8.0 0.00 0.00 0.00 93 1006.8
20260506004034 11 58 1.6 8.0 0.00 0.00 0.00 93 1006.8
20260506003529 11 130 1.6 8.0 0.00 0.00 0.00 93 1006.7
20260506003313 11 76 1.6 8.0 0.00 0.00 0.00 92 1006.6
20260506002532 11 333 1.6 4.8 0.00 0.00 0.00 91 1006.6
20260506002033 11 319 1.6 4.8 0.00 0.00 0.00 91 1006.7
20260506001523 11 306 1.6 4.8 0.00 0.00 0.00 91 1006.7
20260506001021 11 286 1.6 4.8 0.00 0.00 0.00 91 1006.7
20260506000520 12 24 1.6 4.8 0.00 0.00 0.00 92 1006.8
20260506000016 12 24 1.6 4.8 0.00 0.00 0.00 92 1006.8
20260505235514 12 34 1.6 4.8 0.00 0.00 0.00 92 1006.7
20260505235015 12 350 1.6 4.8 0.00 0.00 0.00 92 1006.7
20260505234515 12 326 1.6 4.8 0.00 0.00 0.00 93 1006.7
20260505234009 12 148 1.6 8.0 0.00 0.00 0.00 93 1006.6
20260505233746 12 235 4.8 11.3 0.00 0.00 0.00 93 1006.8
20260505233244 11 169 4.8 11.3 0.00 0.00 0.00 94 1006.8
20260505232744 11 128 1.6 9.7 0.00 0.00 0.00 94 1006.7
20260505232003 11 66 1.6 8.0 0.00 0.00 0.00 94 1006.7
20260505231501 11 219 4.8 14.5 0.00 0.00 0.00 94 1006.6
20260505231001 11 165 4.8 14.5 0.00 0.00 0.00 94 1006.7
20260505230502 11 266 3.2 12.9 0.00 0.00 0.00 93 1006.6
20260505225957 11 240 3.2 6.4 0.00 0.00 0.00 92 1006.9
20260505225446 11 218 3.2 4.8 0.00 0.00 0.00 91 1006.8
20260505224945 11 237 1.6 4.8 0.00 0.00 0.00 91 1006.8
20260505224440 11 205 1.6 4.8 0.00 0.00 0.00 91 1006.9
20260505223938 11 194 0.0 4.8 0.00 0.00 0.00 91 1006.9
20260505223438 11 197 0.0 3.2 0.00 0.00 0.00 91 1006.9
20260505222934 11 207 0.0 1.6 0.00 0.00 0.00 91 1007.0
20260505222429 12 179 1.6 3.2 0.00 0.00 0.00 91 1007.0
20260505221931 12 193 1.6 3.2 0.00 0.00 0.00 91 1007.0
20260505221717 12 94 1.6 3.2 0.00 0.00 0.00 91 1007.0
20260505220929 12 5 1.6 4.8 0.00 0.00 0.00 90 1007.0
20260505220428 12 221 0.0 6.4 0.00 0.00 0.00 90 1006.9
20260505220209 12 219 0.0 6.4 0.00 0.00 0.00 90 1006.9
20260505215429 12 259 0.0 3.2 0.00 0.00 0.00 90 1006.9
20260505215211 12 250 1.6 6.4 0.00 0.00 0.00 90 1006.9
20260505214422 12 242 3.2 6.4 0.00 0.00 0.00 90 1006.9
20260505213924 12 252 1.6 6.4 0.00 0.00 0.00 90 1007.0
20260505213416 12 236 1.6 6.4 0.00 0.00 0.00 90 1007.1
20260505212910 12 188 0.0 3.2 0.00 0.00 0.00 90 1007.0
20260505212410 12 275 1.6 3.2 0.00 0.00 0.00 89 1007.1
20260505212149 12 275 1.6 3.2 0.00 0.00 0.00 89 1007.1
20260505211404 12 292 1.6 3.2 0.00 0.00 0.00 89 1007.1
20260505210902 12 282 0.0 3.2 0.00 0.00 0.00 90 1007.1
20260505210401 12 201 0.0 3.2 0.00 0.00 0.00 89 1007.2
20260505205854 12 199 0.0 1.6 0.00 0.00 0.00 89 1007.3
20260505205338 12 199 0.0 3.2 0.00 0.00 0.00 89 1007.2
20260505204834 12 65 0.0 3.2 0.00 0.00 0.00 88 1007.2
20260505204329 12 65 0.0 3.2 0.00 0.00 0.00 88 1007.2
20260505203832 13 86 1.6 3.2 0.00 0.00 0.00 87 1007.2
20260505203331 13 355 1.6 3.2 0.00 0.00 0.00 87 1007.2
20260505202829 12 324 0.0 3.2 0.00 0.00 0.00 87 1007.2
20260505202331 13 335 0.0 4.8 0.00 0.00 0.00 86 1007.2
20260505201830 13 281 1.6 4.8 0.00 0.00 0.00 86 1007.3
20260505201329 13 232 0.0 3.2 0.00 0.00 0.00 86 1007.4
20260505200829 13 264 0.0 3.2 0.00 0.00 0.00 85 1007.4
20260505200329 13 264 0.0 3.2 0.00 0.00 0.00 85 1007.3
20260505195840 13 264 0.0 3.2 0.00 0.00 0.00 84 1007.4
20260505195328 13 0 0.0 3.2 0.00 0.00 0.00 84 1007.4
20260505194829 13 0 0.0 3.2 0.00 0.00 0.00 83 1007.4
20260505194329 14 0 0.0 3.2 0.00 0.00 0.00 82 1007.4
20260505193819 15 0 0.0 3.2 0.00 0.00 0.00 80 1007.4
20260505193310 15 287 1.6 8.0 0.00 0.00 0.00 79 1007.6
20260505192808 15 252 3.2 11.3 0.00 0.00 0.00 79 1007.5
20260505192311 15 205 3.2 11.3 0.00 0.00 0.00 78 1007.6
20260505191805 15 184 3.2 9.7 0.00 0.00 0.00 78 1007.6
20260505191303 15 213 4.8 17.7 0.00 0.00 0.00 77 1007.6
20260505190801 15 238 4.8 17.7 0.00 0.00 0.00 77 1007.5
20260505190301 15 209 4.8 14.5 0.00 0.00 0.00 77 1007.5
20260505185802 15 207 4.8 16.1 0.00 0.00 0.00 77 1007.6
20260505185539 15 217 4.8 19.3 0.00 0.00 0.00 76 1007.5
20260505184801 16 150 4.8 19.3 0.00 0.00 0.00 76 1007.4
20260505184304 16 176 4.8 16.1 0.00 0.00 0.00 76 1007.4
20260505183802 16 151 6.4 16.1 0.00 0.00 0.00 75 1007.5
20260505183303 16 191 6.4 17.7 0.00 0.00 0.00 75 1007.5
20260505182804 16 192 8.0 24.1 0.00 0.00 0.00 74 1007.4
20260505182305 16 197 9.7 24.1 0.00 0.00 0.00 74 1007.4
20260505181800 16 146 9.7 24.1 0.00 0.00 0.00 73 1007.3
20260505181301 16 188 8.0 24.1 0.00 0.00 0.00 73 1007.4
20260505181033 16 143 6.4 20.9 0.00 0.00 0.00 72 1007.3